Flag for U.S.A. Weather past 2 weeks in Denver, Colorado, U.S.A.

Now
90 °F

Passing clouds.


Feels Like: 86 °F
Forecast: 65 / 90 °F
Wind: 5 mph from North

Location: Buckley Air Force Base

Current Time: Jul 24, 2014 at 2:55:32 PM

Latest Report: Jul 24, 2014 at 2:01 PM


Visibility: 10 mi

Pressure: 30.11 "Hg

Humidity: 20%

Dew point: 43 °F

Location of DenverLocation

Historic Weather in Denver — Graph

°F

Denver temperature yesterday

Maximum temperature yesterday: 85 °F (at 1:58 PM)
Minimum temperature yesterday: 65 °F (at 5:58 AM)
Average temperature yesterday: 73 °F

Past Weeks' High & Low Weather Summary

 TemperatureHumidityPressure
High93 °F (Jul 20, 1:58 PM)100% (Jul 12, 1:58 AM)30.25 "Hg (Jul 12, 1:58 AM)
Low55 °F (Jul 17, 12:58 AM)14% (Jul 20, 1:58 PM)29.74 "Hg (Jul 10, 5:58 PM)
Average72 °F55%29.95 "Hg
* Reported Jul 9 1:58 PM — Jul 24 1:58 PM, Denver, Weather by CustomWeather, © 2014

Note: Actual official high and low records may vary slightly from our data, if they occured in-between our weather recording intervals... More about our weather records

Advertising

Denver weather history for previous 24 hours

 ConditionsComfort  
Time TempWeatherWind HumidityBarometerVisibility
1:58 PM
Jul 24
86 °FThunderstorms. Broken clouds.10 mph21%29.85 "Hg10 mi
12:58 PM89 °FScattered showers. Broken clouds.3 mph26%29.85 "Hg10 mi
11:58 AM91 °FScattered clouds.2 mph22%29.87 "Hg10 mi
10:58 AM88 °FScattered clouds.3 mph25%29.89 "Hg10 mi
9:58 AM85 °FScattered clouds.5 mph31%29.90 "Hg10 mi
8:58 AM80 °FPassing clouds.10 mph38%29.92 "Hg10 mi
7:58 AM76 °FPassing clouds.8 mph42%29.92 "Hg10 mi
6:58 AM69 °FPassing clouds.12 mph52%29.93 "Hg10 mi
5:58 AM67 °FPassing clouds.12 mph53%29.94 "Hg10 mi
4:58 AM69 °FPassing clouds.12 mph50%29.95 "Hg10 mi
3:58 AM71 °FPassing clouds.13 mph45%29.94 "Hg10 mi
2:58 AM73 °FPassing clouds.13 mph42%29.93 "Hg10 mi
1:58 AM73 °FPartly cloudy.10 mph41%29.94 "Hg10 mi
12:58 AM71 °FPassing clouds.13 mph44%29.97 "Hg10 mi
11:58 PM
Jul 23
71 °FPassing clouds.14 mph44%29.99 "Hg10 mi
10:58 PM69 °FPassing clouds.10 mph55%30.01 "Hg10 mi
9:58 PM75 °FPartly cloudy.21 mph38%30.01 "Hg10 mi
8:58 PM73 °FBroken clouds.16 mph45%30.04 "Hg10 mi
7:58 PM76 °FBroken clouds.13 mph40%30.06 "Hg10 mi
6:58 PM74 °FScattered showers. Broken clouds.16 mph48%30.08 "Hg10 mi
5:58 PM78 °FThundershowers. Broken clouds.23 mph34%30.12 "Hg10 mi
4:58 PM78 °FThundershowers. Partly sunny.7 mph31%30.11 "Hg10 mi
3:58 PM78 °FThundershowers. Partly sunny.12 mph57%30.09 "Hg10 mi
2:58 PM82 °FScattered showers. Broken clouds.12 mph52%30.09 "Hg10 mi
Weather by CustomWeather, © 2014

See weather overviewHow to use our weather pages